x

8777812 - Rincon Del San Jose; Potrero Lopeno Sw, Tx (rsjt2) Weather Station

1:00am - Wed 16th Oct 2019 All times are CDT. -5 hours from GMT.

  • Wind
    8mph, 10mph gusts
  • Sea Temp 82°f
  • Air Temp 80°f
  • Sea Pressure 1012.2mb
  • 8777812 - Rincon Del San Jose; Potrero Lopeno Sw, Tx
  • 8777812 - Rincon Del San Jose; Potrero Lopeno Sw, Tx

More Historic Weather Station data

Upgrade to MSW Pro to gain access to the past 30 days of data for over 8000 Wavebouys and Weather Stations around the globe.

Join

Comparision Forecast

View Surf forecast
   
Wed 10/16 1:00am 8 10 mph 1012.2mb 82f 80f
12:36am 8 10 mph 1012.3mb 82f 80f
12:30am 8 10 mph 1012.3mb 82f 80f
12:24am 7 9 mph 1012.4mb 82f 80f
12:18am 8 9 mph 1012.4mb 82f 81f
12:12am 8 10 mph 1012.5mb 82f 81f
12:06am 8 10 mph 1012.5mb 82f 81f
12:00am 9 10 mph 1012.5mb 83f 81f
Tue 10/15 11:42pm 9 10 mph 1012.4mb 83f 81f
11:36pm 10 11 mph 1012.4mb 83f 81f
11:30pm 10 11 mph 1012.3mb - -
11:24pm 10 13 mph 1012.3mb 83f 81f
11:18pm 11 13 mph 1012.2mb 83f 81f
11:12pm 11 14 mph 1012.2mb 83f 81f
11:06pm 11 14 mph 1012.1mb 83f 81f
11:00pm 11 14 mph 1012.1mb 83f 81f
10:42pm 10 11 mph 1012mb 83f 81f
10:36pm 10 14 mph 1011.9mb 83f 81f
10:30pm 11 15 mph 1011.9mb 83f 81f
10:24pm 14 15 mph 1011.8mb 83f 81f
10:18pm 13 15 mph 1011.7mb 83f 81f
10:12pm 13 15 mph 1011.6mb 83f 81f
10:06pm 14 15 mph 1011.5mb 82f 81f
10:00pm 14 16 mph 1011.4mb 83f 81f
9:36pm 15 16 mph 1011.2mb 83f 81f
9:30pm 14 17 mph 1011.1mb 83f 81f
9:24pm 17 20 mph 1011mb 83f 82f
9:18pm 15 18 mph 1010.9mb 83f 82f
9:12pm 16 20 mph 1010.9mb 83f 82f
9:06pm 15 18 mph 1010.8mb 83f 82f
9:00pm 17 18 mph - - -
8:42pm 17 21 mph 1010.6mb 83f 82f
8:36pm 18 22 mph 1010.6mb 83f 82f
8:30pm 18 21 mph 1010.5mb 83f 82f
8:24pm 17 20 mph 1010.4mb 83f 82f
8:18pm 16 20 mph 1010.4mb 83f 82f
8:12pm 16 18 mph 1010.4mb 83f 82f
8:06pm 17 21 mph 1010.3mb 83f 82f
8:00pm 17 20 mph 1010.3mb 83f 82f
7:42pm 17 22 mph 1010.1mb 84f 82f
7:36pm 17 22 mph 1010.1mb 84f 82f
7:30pm 17 22 mph 1010mb 84f 82f
7:24pm 20 23 mph 1010mb 84f 82f
7:18pm 18 22 mph 1010mb 84f 82f
7:12pm 18 22 mph 1009.9mb 84f 83f
7:06pm 18 22 mph 1009.9mb 84f 83f
7:00pm 18 21 mph 1009.8mb 84f 83f
6:42pm 18 21 mph 1009.8mb 84f 83f
6:36pm 18 21 mph 1009.8mb 84f 84f
6:30pm 18 21 mph 1009.8mb 84f 84f
6:24pm 17 21 mph 1009.8mb 84f 84f
6:18pm 16 21 mph 1009.8mb 84f 84f
6:12pm 18 21 mph 1010mb 84f 84f
6:06pm 17 22 mph 1009.9mb 84f 84f
5:42pm 18 21 mph 1009.9mb 84f 85f
5:36pm 18 22 mph 1009.9mb 84f 85f
5:30pm 18 22 mph 1009.9mb 84f 84f
5:24pm 20 22 mph 1009.9mb 84f 85f
5:18pm 18 22 mph 1010mb - -
5:12pm 18 21 mph 1010mb 84f 85f
5:06pm 17 22 mph 1010mb 84f 85f
5:00pm 18 22 mph 1010mb 84f 85f
4:42pm 17 22 mph 1010.1mb 84f 85f
4:36pm 17 21 mph 1010.1mb 84f 85f
4:30pm 18 22 mph 1010mb 84f 85f
4:24pm 17 22 mph 1010.1mb 84f 85f
4:18pm 18 21 mph 1010.1mb 84f 85f
4:12pm 16 21 mph 1010mb 83f 85f
4:06pm 16 18 mph 1010mb 83f 85f
4:00pm 16 20 mph 1010.1mb 83f 85f
3:24pm 16 18 mph 1010.1mb 83f 85f
3:18pm 15 18 mph 1010mb 83f 85f
3:12pm 16 17 mph 1010.1mb 83f 85f
3:06pm 15 20 mph 1010.2mb 83f 85f
3:00pm 15 18 mph 1010.3mb 83f 85f
2:42pm 17 20 mph 1010.5mb 82f 85f
2:36pm 16 20 mph 1010.5mb 82f 85f
2:30pm 16 20 mph - - -
2:24pm 15 18 mph 1010.6mb 82f 84f
2:18pm 13 15 mph 1010.7mb 82f 84f
2:12pm 13 15 mph 1010.7mb 82f 84f
2:06pm 14 16 mph 1010.7mb 82f 83f
2:00pm 13 15 mph 1010.8mb 82f 83f
1:42pm 15 16 mph 1011.1mb 81f 83f
1:36pm 15 16 mph 1011.2mb 81f 83f
1:30pm 15 17 mph 1011.3mb 81f 83f
1:24pm 14 16 mph 1011.4mb 81f 83f
1:18pm 15 17 mph 1011.5mb 81f 83f
1:12pm 14 16 mph 1011.6mb 81f 82f
1:06pm 15 16 mph 1011.7mb 81f 82f
1:00pm 13 15 mph 1011.8mb 80f 82f
12:42pm 15 18 mph 1012.2mb 80f 82f
12:36pm 15 16 mph 1012.2mb 80f 82f
12:30pm 14 15 mph 1012.3mb 80f 82f
12:24pm 14 16 mph 1012.4mb 80f 82f
12:18pm 13 16 mph 1012.5mb 80f 81f
12:12pm 13 15 mph 1012.6mb 80f 81f
12:06pm 14 16 mph 1012.7mb 80f 81f
12:00pm 14 16 mph 1012.7mb 80f 81f
11:42am 14 15 mph 1012.9mb 80f 81f
11:36am 13 15 mph 1012.9mb 79f 81f
11:30am 14 15 mph 1013mb 79f -
11:24am 13 15 mph 1013mb 79f 80f
11:18am 13 14 mph 1013mb 79f 80f
11:12am 13 14 mph 1013mb 79f 80f
11:06am 10 14 mph 1013mb 79f 80f
11:00am 13 15 mph 1013mb 78f 80f
10:42am 11 14 mph 1013mb 78f 79f
10:36am 11 13 mph 1013mb 78f 79f
10:30am 10 13 mph 1013mb 78f 79f
10:24am 11 13 mph 1013mb 78f 79f
10:18am 11 13 mph 1013mb 78f 79f
10:12am 9 11 mph 1013mb 78f 79f
10:06am 9 10 mph 1013.1mb 78f 79f
10:00am 8 10 mph 1013.1mb 78f 78f
9:42am 7 7 mph 1013mb 78f 78f
9:36am 7 8 mph 1012.9mb 78f 78f
9:30am 8 9 mph 1012.9mb 77f 78f
9:24am 9 9 mph 1012.8mb 77f 78f
9:18am 9 9 mph 1012.7mb 77f 78f
9:12am 9 10 mph 1012.7mb 77f 78f
9:06am 10 10 mph 1012.6mb 77f 77f
9:00am 9 11 mph - - -
8:42am 9 9 mph 1012.7mb 77f 78f
8:36am 8 9 mph 1012.7mb 77f 78f
8:30am 8 8 mph 1012.7mb 78f 78f
8:24am 7 8 mph 1012.7mb 78f 78f
8:18am 7 9 mph 1012.6mb 78f 78f
8:12am 8 9 mph 1012.6mb 78f 78f
8:06am 8 8 mph 1012.5mb 78f 78f
8:00am 7 8 mph 1012.5mb 78f 78f
7:42am 6 7 mph 1012.5mb 78f 77f
7:36am 6 7 mph 1012.5mb 78f 77f
7:30am 6 6 mph 1012.5mb 78f 77f
7:24am 6 7 mph 1012.6mb 78f 77f
7:18am 6 7 mph 1012.5mb 78f 77f
7:12am 6 7 mph 1012.5mb 78f 77f
7:06am 6 6 mph 1012.5mb 78f 77f
7:00am 5 6 mph 1012.5mb 78f 77f
6:42am 5 6 mph 1012.4mb 78f 77f
6:36am 5 6 mph 1012.4mb 78f 77f
6:30am 5 6 mph 1012.3mb 78f 77f
6:24am 6 7 mph 1012.3mb 78f 77f
6:18am 6 7 mph 1012.3mb 78f 77f
6:12am 6 7 mph 1012.3mb 78f 77f
6:06am 6 7 mph 1012.2mb 78f 77f
6:00am 6 6 mph 1012.3mb 78f 77f
5:42am 5 6 mph 1012.3mb 78f 76f
5:36am 5 6 mph 1012.3mb 78f 76f
5:30am 6 6 mph 1012.3mb 78f 76f
5:24am 6 6 mph 1012.3mb 78f 77f
5:18am 6 6 mph 1012.3mb 78f 77f
5:12am 6 6 mph 1012.2mb 78f 77f
5:06am 6 6 mph 1012.2mb 78f 77f
5:00am 6 6 mph 1012.2mb 78f 77f
4:42am 6 6 mph 1012.3mb 78f 77f
4:36am 6 6 mph 1012.3mb 78f 77f
4:30am 6 7 mph 1012.4mb 78f 77f
4:24am 6 7 mph 1012.4mb 78f 77f
4:18am 7 8 mph 1012.4mb 78f 77f
4:12am 7 8 mph 1012.4mb 78f 77f
4:06am 7 8 mph 1012.4mb 78f 77f
4:00am 7 8 mph 1012.5mb 78f 78f
3:42am 10 11 mph 1012.5mb 78f 78f
3:36am 10 11 mph 1012.5mb 78f 78f
3:30am 10 11 mph 1012.6mb 78f 78f
3:24am 10 13 mph 1012.6mb 78f 78f
3:18am 11 13 mph 1012.7mb 78f 78f
3:12am 9 11 mph 1012.6mb 78f 78f
3:06am 10 11 mph 1012.7mb 78f 78f
3:00am 9 11 mph 1012.7mb - -
2:42am 9 10 mph 1012.7mb 78f 78f
2:36am 9 10 mph 1012.7mb 78f 78f
2:30am 9 11 mph 1012.8mb 78f 78f
2:24am 10 11 mph 1012.8mb 78f 78f
2:18am 10 11 mph 1012.8mb 78f 78f
2:12am 9 10 mph 1012.8mb 78f 78f
2:06am 9 10 mph 1012.9mb 78f 78f
2:00am 8 9 mph 1012.9mb 78f 78f
1:48am 7 9 mph 1013mb - -
1:42am 6 8 mph 1013.1mb 78f 78f
1:36am 5 6 mph 1013.1mb 78f 78f
1:30am 3 6 mph 1013.2mb 78f 78f
1:24am 3 6 mph 1013.2mb 78f 78f
1:18am 5 6 mph 1013.3mb 78f 78f
1:12am 5 6 mph 1013.3mb 78f 78f
1:06am 5 6 mph 1013.3mb 78f 78f
1:00am 5 6 mph 1013.4mb 78f 78f
12:36am 7 9 mph 1013.4mb 78f 79f
12:30am 8 11 mph 1013.4mb 78f 80f
12:24am 8 9 mph 1013.4mb 78f 80f
12:18am 8 9 mph 1013.4mb 78f 80f
12:12am 7 9 mph 1013.5mb 78f 79f
12:06am 8 9 mph 1013.5mb 78f 79f
12:00am 7 9 mph 1013.6mb 78f 80f
Mon 10/14 11:42pm 6 8 mph 1013.8mb 78f 80f
11:36pm 5 7 mph 1013.7mb 78f 80f
11:30pm 5 6 mph 1013.7mb 78f 80f
11:24pm 5 6 mph 1013.7mb 78f 80f
11:18pm 5 6 mph 1013.6mb 78f 80f
11:12pm 3 5 mph 1013.6mb 78f 80f
11:06pm 3 8 mph 1013.7mb 78f 80f
11:00pm 6 7 mph 1013.7mb 78f 80f
10:42pm 9 11 mph 1013.6mb 78f 81f
10:36pm 8 11 mph 1013.7mb 78f 80f
10:30pm 8 10 mph - - -
10:24pm 9 11 mph 1013.6mb 78f 80f
10:18pm 8 11 mph 1013.6mb 78f 81f
10:12pm 8 10 mph 1013.6mb 78f 81f
10:06pm 8 9 mph 1013.6mb 78f 81f
10:00pm 9 13 mph 1013.6mb 78f 81f
9:42pm 8 9 mph 1013.5mb 78f 81f
9:36pm 8 11 mph 1013.5mb 78f 81f
9:30pm 8 10 mph 1013.4mb 78f -
9:24pm 7 9 mph 1013.4mb 78f 81f
9:18pm 7 9 mph 1013.3mb 78f 81f
9:12pm 7 13 mph 1013.2mb 78f 81f
9:06pm 10 13 mph 1013.2mb 78f 81f
9:00pm 9 13 mph 1013.1mb 78f 81f
8:30pm 10 14 mph 1012.7mb 78f 81f
8:24pm 14 16 mph 1012.6mb 78f 81f
8:18pm 11 15 mph 1012.6mb 78f 81f
8:12pm 13 17 mph 1012.5mb 78f 81f
8:06pm 15 17 mph 1012.3mb 78f 81f
8:00pm 15 17 mph 1012.3mb 78f 81f
7:42pm 14 16 mph 1012.3mb 78f 81f
7:36pm 15 17 mph 1012.2mb 78f 81f
7:30pm 16 18 mph 1012.2mb 78f 81f
7:24pm 15 17 mph 1012.2mb 78f 81f
7:18pm 15 17 mph 1012.1mb 78f 81f
7:12pm 15 18 mph 1012mb 78f 81f
7:06pm 16 18 mph 1012mb 77f 81f
7:00pm 14 16 mph 1012mb 77f 81f
6:42pm 15 17 mph 1012mb 77f 82f
6:36pm 15 17 mph 1012.1mb 77f 82f
6:30pm 16 18 mph 1012.1mb 77f 82f
6:24pm 14 17 mph 1012.1mb 77f 82f
6:18pm 14 17 mph 1012.1mb 77f 82f
6:12pm 14 17 mph 1012mb 78f 82f
6:06pm 15 18 mph 1012mb 78f 82f
6:00pm 15 16 mph 1012mb 77f 82f
5:42pm 15 18 mph 1012mb 76f 82f
5:36pm 14 16 mph 1012mb 76f 82f
5:30pm 15 17 mph 1012mb 76f 82f
5:24pm 15 18 mph 1011.9mb 76f 82f
5:18pm 15 18 mph 1012mb 76f 82f
5:12pm 15 17 mph 1012mb 75f 82f
5:06pm 13 18 mph 1011.9mb 75f 82f
5:00pm 16 18 mph 1011.9mb - -
4:42pm 15 17 mph 1012mb 75f 83f
4:36pm 16 18 mph 1011.9mb 75f 83f
4:30pm 16 18 mph 1012mb 75f 83f
4:24pm 14 16 mph 1011.9mb 75f 82f
4:18pm 15 18 mph 1011.9mb 75f 83f
4:12pm 14 17 mph 1011.9mb 75f 83f
4:06pm 14 17 mph 1012mb 75f 83f
4:00pm 14 17 mph 1011.9mb 75f 83f
3:48pm 15 16 mph - - -
3:36pm 15 17 mph 1012mb 75f 83f
3:30pm 15 16 mph 1012.1mb 75f 83f
3:24pm 13 16 mph 1012.1mb 75f 83f
3:18pm 15 17 mph 1012.2mb 75f 83f
3:12pm 15 17 mph 1012.1mb 75f 83f
3:06pm 13 15 mph 1012.2mb 75f 83f
3:00pm 10 11 mph 1012.1mb 75f 82f
2:42pm 11 13 mph 1012.3mb 75f 81f
2:36pm 11 13 mph 1012.4mb 75f 81f
2:30pm 9 11 mph 1012.5mb 75f 81f
2:24pm 10 11 mph 1012.5mb 75f 81f
2:18pm 10 11 mph 1012.6mb 74f 82f
2:12pm 10 11 mph 1012.7mb 74f 82f
2:06pm 11 13 mph 1012.7mb 74f 82f
2:00pm 13 14 mph 1012.8mb 73f 82f
1:42pm 9 11 mph 1013.1mb 73f 82f
1:36pm 7 9 mph 1013.3mb 73f 81f
1:30pm 8 10 mph 1013.4mb 73f 81f
1:24pm 9 11 mph 1013.4mb 73f 82f
1:18pm 9 10 mph 1013.6mb 73f 81f
1:12pm 9 10 mph 1013.6mb 73f 81f
1:06pm 8 8 mph 1013.8mb 73f 81f
1:00pm 7 8 mph 1013.9mb 74f -
12:24pm 8 8 mph 1014.5mb 72f 80f
12:18pm 7 8 mph 1014.5mb 72f 79f
12:12pm 7 8 mph 1014.5mb 72f 79f
12:06pm 7 9 mph 1014.6mb 72f 79f
12:00pm 7 8 mph 1014.6mb 72f 79f
11:42am 7 8 mph 1014.7mb 72f 78f
11:36am 7 7 mph 1014.8mb 72f 78f
11:30am 6 7 mph 1014.8mb 72f 78f
11:24am 6 6 mph 1014.9mb 72f 78f
11:18am 6 6 mph 1014.9mb 72f 77f
11:12am 6 6 mph 1015mb 72f 77f
11:06am 5 6 mph 1014.9mb 72f 77f
11:00am 3 5 mph 1014.9mb 72f 77f
10:42am 2 2 mph 1014.8mb 72f 77f
10:36am 1 1 mph 1014.9mb 72f 77f
10:30am  -  2 mph 1014.9mb 72f 76f
10:24am  -  1 mph 1015mb 71f 76f
10:18am  -  2 mph 1014.9mb 71f 77f
10:12am  -  1 mph 1014.9mb 71f 77f
10:06am  -  0 mph 1014.9mb 71f 78f
10:00am  -  0 mph 1014.9mb 71f 76f
9:48am  -  0 mph - - -
9:36am  -  1 mph 1014.6mb 71f 72f
9:30am  -  2 mph 1014.6mb 71f 72f
9:24am 1 2 mph 1014.6mb 71f 71f
9:18am 2 2 mph 1014.6mb 71f 73f
9:12am 2 3 mph 1014.6mb 71f 73f
9:06am 3 3 mph 1014.6mb 71f 72f
9:00am 2 3 mph 1014.5mb 71f 71f
8:42am 3 3 mph 1014.5mb 71f 70f
8:36am 1 2 mph 1014.4mb 71f 71f
8:30am  -  3 mph 1014.3mb 71f 71f
8:24am 3 3 mph 1014.4mb 71f 69f
8:18am 3 3 mph 1014.3mb 71f 70f
8:12am 3 3 mph 1014.3mb 71f 69f
8:06am 2 3 mph 1014.2mb 71f 69f
8:00am 2 3 mph 1014.1mb 71f 69f
7:42am  -  1 mph 1014.1mb 71f 68f
7:36am  -  1 mph 1014mb 71f 68f
7:30am  -  1 mph 1014mb 71f 68f
7:24am  -  1 mph 1014mb 71f 68f
7:18am 1 1 mph 1013.9mb 71f 68f
7:12am 1 1 mph 1013.8mb 71f 68f
7:06am  -  1 mph 1013.8mb 71f 68f
7:00am  -  1 mph 1013.7mb 70f 68f
6:42am  -  1 mph 1013.8mb 70f 68f
6:36am  -  2 mph 1013.8mb 70f 68f
6:30am 1 2 mph 1013.7mb 70f 68f
6:24am 1 2 mph 1013.7mb 70f 69f
6:18am 2 2 mph 1013.6mb 70f 69f
6:12am 1 2 mph 1013.6mb 70f 69f
6:06am 2 2 mph 1013.6mb 70f 69f
6:00am 2 2 mph - - -
5:42am  -  0 mph 1013.4mb 70f 69f
5:36am  -  0 mph 1013.3mb 70f 69f
5:30am  -  0 mph 1013.2mb 70f 69f
5:24am  -  1 mph 1013.2mb 70f 69f
5:18am 1 2 mph 1013.1mb 70f 69f
5:12am 2 2 mph 1013.1mb 70f 69f
5:06am 1 2 mph 1013.1mb 70f 69f
5:00am 2 2 mph 1013mb 70f 69f
4:42am 2 2 mph 1012.9mb 70f 69f
4:36am 2 2 mph 1012.9mb 70f 69f
4:30am 2 2 mph 1012.9mb 70f 69f
4:24am 2 2 mph 1012.9mb 70f 69f
4:18am 1 1 mph 1012.9mb 70f 70f
4:12am 1 1 mph 1013mb 70f 70f
4:06am  -  1 mph 1013.1mb 70f 70f
4:00am  -  1 mph 1013.1mb 70f 70f
3:42am  -  0 mph 1013.2mb 70f 70f
3:36am  -  0 mph 1013.2mb 70f 70f
3:30am  -  0 mph 1013.3mb 70f 71f
3:24am  -  0 mph 1013.4mb 70f 70f
3:18am  -  0 mph 1013.5mb 70f 70f
3:12am  -  0 mph 1013.6mb 70f 70f
3:06am  -  1 mph 1013.6mb 70f 70f
3:00am  -  0 mph 1013.7mb - -
2:42am  -  1 mph 1013.6mb 70f 70f
2:36am  -  1 mph 1013.6mb 70f 70f
2:30am  -  1 mph 1013.7mb 70f 70f
2:24am 1 2 mph 1013.7mb 70f 70f
2:18am 2 3 mph 1013.7mb 70f 70f
2:12am 3 3 mph 1013.7mb 70f 70f
2:06am 3 3 mph 1013.6mb 70f 70f
2:00am 3 3 mph 1013.7mb - -
1:42am 3 3 mph 1013.8mb 70f 71f
1:36am 2 2 mph 1013.8mb 70f 71f
1:30am 2 2 mph 1013.8mb 70f 71f
1:24am 2 2 mph 1013.8mb 70f 71f
1:18am 2 2 mph 1013.7mb 70f 71f
1:12am 1 2 mph 1013.7mb 70f 71f
1:06am 1 1 mph 1013.7mb 70f 71f
1:00am 1 1 mph 1013.8mb 70f 71f
12:36am 2 3 mph 1013.8mb 69f 71f
12:30am 2 3 mph 1013.8mb 69f 71f
12:24am 3 3 mph 1013.8mb 69f 71f
12:18am 3 3 mph 1013.9mb 69f 71f
12:12am 3 3 mph 1013.9mb 69f 71f
12:06am 1 3 mph 1013.9mb 69f 71f
12:00am 2 3 mph 1013.8mb 69f 71f
Sun 10/13 11:42pm  -  1 mph 1013.8mb 69f 72f
11:36pm  -  1 mph 1013.7mb 69f 72f
11:30pm  -  1 mph 1013.7mb 69f 72f
11:24pm 1 3 mph 1013.6mb 69f 72f
11:18pm 2 3 mph 1013.7mb 69f 72f
11:12pm 3 3 mph 1013.7mb 69f 72f
11:06pm 3 5 mph 1013.7mb 69f 72f
11:00pm 3 5 mph 1013.7mb 69f 72f
10:42pm 3 3 mph 1013.6mb 69f 72f
10:36pm 3 3 mph 1013.6mb 69f 73f
10:30pm 3 3 mph 1013.6mb 69f 73f
10:24pm 3 3 mph 1013.5mb 69f 73f
10:18pm 3 6 mph 1013.5mb 69f 73f
10:12pm 3 5 mph 1013.5mb 69f 73f
10:06pm 5 5 mph 1013.5mb 69f 73f
10:00pm 5 5 mph 1013.5mb 69f 73f
9:42pm 3 3 mph 1013.4mb 69f 76f
9:36pm 1 1 mph 1013.3mb 69f 77f
9:30pm  -  1 mph 1013.2mb 69f 78f
9:24pm  -  1 mph 1013.1mb 69f 78f
9:18pm  -  1 mph 1013mb 69f 78f
9:12pm  -  1 mph 1013mb 69f 78f
9:06pm  -  1 mph 1013mb 69f 78f
9:00pm  -  0 mph 1013mb 69f 78f
8:30pm 1 3 mph 1012.8mb 69f 78f
8:24pm 2 3 mph 1012.8mb 69f 78f
8:18pm  -  2 mph 1012.7mb 69f 78f
8:12pm 3 5 mph 1012.6mb 69f 78f
8:06pm 1 3 mph 1012.6mb 69f 78f
8:00pm 3 5 mph 1012.5mb 69f 78f
7:42pm 6 7 mph 1012.4mb 69f 79f
7:36pm 6 7 mph 1012.3mb 69f 79f
7:30pm 7 8 mph 1012.2mb 69f 79f
7:24pm 7 8 mph 1012.2mb 69f 79f
7:18pm 7 8 mph 1012.2mb 69f 79f
7:12pm 7 8 mph 1012.1mb 69f 79f
7:06pm 7 8 mph 1012.1mb 69f 79f
7:00pm 7 8 mph 1012.1mb 69f 77f
6:42pm 10 11 mph 1012mb 69f 77f
6:36pm 8 9 mph 1012mb 69f 77f
6:30pm 9 10 mph 1012mb 69f 77f
6:24pm 10 13 mph 1012mb 69f 77f
6:18pm 13 15 mph 1012.1mb 69f 78f
6:12pm 13 15 mph 1012.1mb 69f 78f
6:06pm 11 14 mph 1012.1mb 69f 77f
6:00pm 14 15 mph 1012.1mb 69f 76f
5:42pm 14 17 mph 1012mb 69f 76f
5:36pm 15 18 mph 1012mb 69f 77f
5:30pm 18 20 mph 1012.1mb 69f 77f
5:24pm 17 21 mph 1012.1mb 69f 77f
5:18pm 17 21 mph 1012.1mb 69f 77f
5:12pm 17 21 mph 1012.1mb 69f 77f
5:06pm 16 20 mph 1012mb 69f 75f
5:00pm 17 21 mph 1012mb 69f 74f
4:42pm 20 22 mph 1012.1mb 69f 74f
4:36pm 18 21 mph 1012.1mb 69f 74f
4:30pm 18 20 mph 1012.2mb 69f 75f
4:24pm 20 21 mph 1012.2mb 69f 74f
4:18pm 18 22 mph 1012.2mb 69f 74f
4:12pm 18 21 mph 1012.4mb 69f 74f
4:06pm 17 21 mph 1012.4mb 69f 74f
4:00pm 17 21 mph 1012.5mb 69f 73f
3:48pm 21 22 mph - - -
3:36pm 17 20 mph 1012.6mb 69f 72f
3:30pm 16 21 mph 1012.6mb 69f 72f
3:24pm 21 22 mph 1012.5mb 68f 72f
3:18pm 15 17 mph 1012.8mb 68f 72f
3:12pm 10 13 mph 1013mb 68f 72f
3:06pm 11 15 mph 1013mb 68f 72f
3:00pm 15 22 mph 1012.9mb 68f 71f
2:42pm 17 20 mph 1012.9mb 68f 70f
2:36pm 11 16 mph 1013.2mb 68f 70f
2:30pm 14 16 mph 1013.4mb 68f 69f
2:24pm 16 18 mph 1013.6mb 68f 69f
2:18pm 14 18 mph 1013.6mb 68f 69f
2:12pm 15 18 mph 1013.5mb 68f 69f
2:06pm 15 17 mph 1013.6mb 68f 69f
2:00pm 16 17 mph 1013.6mb 68f 69f
1:30pm 17 20 mph 1014mb 68f 69f
1:24pm 15 17 mph 1014.2mb 68f 69f
1:18pm 16 20 mph 1014.3mb 68f 69f
1:12pm 16 18 mph 1014.4mb 68f 69f
1:06pm 17 18 mph 1014.4mb 68f 69f
1:00pm 16 20 mph 1014.4mb 68f 69f
12:42pm 16 18 mph 1014.7mb 68f 68f
12:36pm 17 21 mph 1014.8mb 68f 68f
12:30pm 17 21 mph 1014.8mb 68f 68f
12:24pm 18 22 mph 1014.8mb 68f 68f
12:18pm 17 20 mph 1014.9mb 68f 67f
12:12pm 17 20 mph 1015mb 68f 67f
12:06pm 14 20 mph 1015mb 68f 67f
12:00pm 17 20 mph 1015mb 68f 67f
11:42am 15 17 mph 1015.2mb 68f 68f
11:36am 16 18 mph 1015.1mb 68f 68f
11:30am 15 20 mph 1015.2mb 68f 67f
11:24am 15 18 mph 1015.3mb 68f 68f
11:18am 16 18 mph 1015.3mb 68f 69f
11:12am 15 21 mph 1015.3mb 68f 69f
11:06am 16 18 mph 1015.2mb 68f 70f
11:00am 15 17 mph 1015.1mb 68f 70f
10:30am 14 16 mph 1015.1mb 68f 69f
10:24am 14 15 mph 1015.1mb 68f 69f
10:18am 13 14 mph 1015.1mb 68f 68f
10:12am 13 15 mph 1015.1mb 68f 68f
10:06am 14 15 mph 1015.2mb 68f 68f
10:00am 13 15 mph 1015.2mb 68f 68f
9:42am 10 13 mph 1015.1mb 68f 68f
9:36am 10 13 mph 1015.1mb 68f 68f
9:30am 11 14 mph 1015mb 68f 68f
9:24am 11 14 mph 1014.9mb 68f 68f
9:18am 11 13 mph 1014.9mb 68f 68f
9:12am 10 11 mph 1014.9mb 68f 67f
9:06am 10 11 mph 1014.9mb 68f 67f
9:00am 9 11 mph 1014.9mb 68f 67f
8:42am 10 13 mph 1014.8mb 68f 67f
8:36am 10 13 mph 1014.8mb 68f 67f
8:30am 10 13 mph 1014.8mb 68f 66f
8:24am 11 13 mph 1014.8mb 68f 67f
8:18am 11 13 mph 1014.9mb 68f 67f
8:12am 11 13 mph 1014.9mb 68f 66f
8:06am 10 11 mph 1014.8mb 68f 66f
8:00am 11 11 mph 1014.8mb 68f 67f
7:42am 9 11 mph 1014.7mb 68f 67f
7:36am 10 11 mph 1014.6mb 68f 67f
7:30am 8 10 mph 1014.7mb 68f 67f
7:24am 9 10 mph 1014.7mb 68f 67f
7:18am 9 11 mph 1014.7mb 68f 67f
7:12am 9 10 mph 1014.6mb 68f 67f
7:06am 8 9 mph 1014.6mb 68f 67f
7:00am 8 9 mph 1014.7mb 68f 67f
6:42am 7 9 mph 1014.7mb 68f 67f
6:36am 7 8 mph 1014.8mb 68f 66f
6:30am 7 8 mph 1014.8mb 68f -
6:24am 7 8 mph 1014.6mb 68f 66f
6:18am 8 9 mph 1014.5mb 68f 66f
6:12am 8 9 mph 1014.6mb 68f 66f
6:06am 9 9 mph 1014.6mb 68f 66f
6:00am 9 10 mph 1014.6mb 68f -
5:42am 8 9 mph 1014.7mb 68f 66f
5:36am 8 8 mph 1014.6mb 68f 66f
5:30am 7 8 mph 1014.6mb 68f 66f
5:24am 7 7 mph 1014.6mb 68f 66f
5:18am 6 8 mph 1014.5mb 68f 66f
5:12am 7 8 mph 1014.5mb 68f 66f
5:06am 7 9 mph 1014.5mb 68f 66f
5:00am 8 8 mph 1014.5mb 68f 66f
4:42am 7 8 mph 1014.5mb 68f 66f
4:36am 7 8 mph 1014.5mb 68f 66f
4:30am 6 7 mph 1014.5mb 68f 66f
4:24am 6 7 mph 1014.5mb 68f 66f
4:18am 7 7 mph 1014.5mb 68f 66f
4:12am 6 7 mph 1014.5mb 68f 66f
4:06am 6 8 mph 1014.5mb 68f 66f
4:00am 6 7 mph 1014.5mb 68f 66f
3:42am 7 8 mph 1014.7mb 68f 66f
3:36am 8 8 mph 1014.8mb 68f 66f
3:30am 8 9 mph 1014.8mb 68f 66f
3:24am 8 9 mph 1014.8mb 68f 66f
3:18am 7 9 mph 1014.8mb 68f 66f
3:12am 9 10 mph 1014.8mb 68f 66f
3:06am 9 10 mph 1014.9mb 68f 66f
3:00am 8 10 mph 1014.9mb 68f 66f
2:42am 8 10 mph 1015mb 68f 66f
2:36am 8 10 mph 1015.1mb 68f 66f
2:30am 8 9 mph 1015.1mb 68f 66f
2:24am 9 10 mph 1015.2mb 68f 66f
2:18am 9 10 mph 1015.2mb 68f 66f
2:12am 8 9 mph 1015.2mb 68f 66f
2:06am 7 8 mph 1015.3mb 68f 66f
2:00am 7 7 mph 1015.3mb 68f 66f
1:30am 9 10 mph 1015.6mb 68f 66f
1:24am 7 8 mph 1015.5mb 68f 66f
1:18am 7 8 mph 1015.6mb 68f 66f
1:12am 8 9 mph 1015.7mb 68f 66f
1:06am 7 8 mph 1015.7mb 68f 66f
1:00am 7 8 mph 1015.7mb 68f 66f
12:42am 6 7 mph 1016.1mb - -
12:36am 7 7 mph 1016.1mb - -
12:30am 6 7 mph 1016.2mb 68f 67f
12:24am 6 7 mph 1016.1mb 68f 67f
12:18am 5 6 mph 1016.2mb 68f 67f
12:12am 5 6 mph 1016.1mb 68f 67f
12:06am 6 6 mph 1016.2mb 68f 67f
12:00am 6 7 mph 1016.3mb 68f 67f
Sat 10/12 11:36pm 2 3 mph 1016.5mb 68f 67f
11:30pm 3 5 mph 1016.5mb 68f 67f
11:24pm 3 5 mph 1016.6mb 67f 67f
11:18pm 3 5 mph 1016.7mb 67f 67f
11:12pm 5 6 mph 1016.9mb 67f 67f
11:06pm 3 6 mph 1017mb 67f 67f
11:00pm 5 5 mph 1017mb - -
10:42pm 3 5 mph 1017.1mb 67f 67f
10:36pm 5 5 mph 1017mb 67f 67f
10:30pm 3 5 mph 1017.1mb 67f 67f
10:24pm 3 5 mph 1017.1mb 67f 67f
10:18pm 3 5 mph 1017mb 67f 67f
10:12pm 3 5 mph 1017mb 67f 67f
10:06pm 3 3 mph 1017.1mb 67f 67f
10:00pm 2 3 mph 1017mb 67f 67f
9:42pm 5 5 mph 1017.1mb 67f 68f
9:36pm 5 6 mph 1017mb 67f 68f
9:30pm 5 6 mph 1017mb 67f 69f
9:24pm 3 5 mph 1017mb 67f 69f
9:18pm 3 5 mph 1017.1mb 67f 69f
9:12pm 6 6 mph 1017.1mb 67f 69f
9:06pm 5 6 mph 1017.2mb 67f 69f
9:00pm 5 6 mph 1017.2mb 67f 68f
8:42pm 5 6 mph 1017.5mb 67f 68f
8:36pm 3 5 mph 1017.4mb 67f 68f
8:30pm 3 6 mph 1017.5mb 67f 68f
8:24pm 5 6 mph 1017.3mb 67f 68f
8:18pm 6 6 mph 1017.3mb 67f 68f
8:12pm 5 6 mph 1017.2mb 67f 68f
8:06pm 5 6 mph 1017.2mb 67f 68f
8:00pm 5 5 mph 1017.2mb 67f 68f
7:42pm 5 6 mph 1017.1mb 66f 68f
7:36pm 5 6 mph 1017mb 66f 68f
7:30pm 5 6 mph 1017.1mb 66f 68f
7:24pm 6 7 mph 1017.1mb 66f 68f
7:18pm 6 7 mph 1017mb 66f 68f
7:12pm 8 9 mph 1017.1mb 66f 68f
7:06pm 8 9 mph 1017.2mb 66f 68f
7:00pm 8 9 mph 1017.1mb 66f 68f
6:42pm 9 10 mph 1017.2mb 66f 68f
6:36pm 8 10 mph 1017.2mb 66f 68f
6:30pm 9 10 mph 1017.2mb 66f 68f
6:24pm 9 10 mph 1017.3mb 66f 68f
6:18pm 9 13 mph 1017.2mb 66f 68f
6:12pm 10 13 mph 1017.2mb 66f 68f
6:06pm 11 14 mph 1017.1mb 66f 68f
6:00pm 10 14 mph 1017mb 66f 68f
5:42pm 13 14 mph 1016.9mb 66f 68f
5:36pm 13 16 mph 1017mb 66f 68f
5:30pm 15 17 mph 1016.8mb - -
5:24pm 14 16 mph 1016.8mb 66f 68f
5:18pm 14 15 mph 1016.9mb 66f 68f
5:12pm 13 15 mph 1017mb 66f 67f
5:06pm 13 15 mph 1017.2mb 66f 67f
5:00pm 13 15 mph 1017.2mb 66f 67f
4:42pm 13 16 mph 1017.2mb 66f 67f
4:36pm 15 16 mph 1017.3mb 66f 67f
4:30pm 14 16 mph 1017.3mb 66f 67f
4:24pm 11 17 mph 1017.6mb 66f 67f
4:18pm 13 17 mph 1017.7mb 65f 67f
4:12pm 14 16 mph 1017.6mb 65f 67f
4:06pm 13 16 mph 1017.7mb 65f 67f
4:00pm 13 17 mph 1017.8mb 65f 67f
3:42pm 13 16 mph 1018mb 65f 67f
3:36pm 14 17 mph 1018.2mb 65f 67f
3:30pm 14 18 mph 1018.2mb 65f 67f
3:24pm 17 20 mph 1018.3mb 65f 67f
3:18pm 15 17 mph 1018.5mb 65f 66f
3:12pm 15 20 mph 1018.6mb 65f 66f
3:06pm 15 18 mph 1018.6mb 65f 66f
3:00pm 15 18 mph 1018.7mb 65f 66f
2:42pm 13 15 mph 1019.3mb 65f 66f
2:36pm 15 17 mph 1019.5mb 65f 66f
2:30pm 15 17 mph 1019.5mb 65f 66f
2:24pm 13 17 mph 1019.6mb 65f 66f
2:18pm 16 21 mph 1019.7mb 65f 66f
2:12pm 18 22 mph 1019.8mb 65f 65f
2:06pm 16 18 mph 1019.8mb 65f 65f
2:00pm 14 18 mph - - -
1:42pm 17 20 mph 1020.3mb 65f 65f
1:36pm 15 18 mph 1020.4mb 65f 65f
1:30pm 17 22 mph 1020.4mb 65f 64f
1:24pm 18 22 mph 1020.4mb 65f 64f
1:18pm 18 20 mph 1020.5mb 65f 64f
1:12pm 18 24 mph 1020.7mb 65f 64f
1:06pm 17 22 mph 1021mb 65f 64f
1:00pm 18 23 mph 1021.1mb 65f 64f
12:48pm 17 21 mph 1021.5mb - -
12:42pm 16 20 mph 1021.6mb 65f 64f
12:36pm 13 21 mph 1021.7mb 65f 64f
12:30pm 17 22 mph 1021.8mb 65f 63f
12:24pm 18 23 mph 1021.8mb 65f 63f
12:18pm 18 22 mph 1021.9mb 65f 63f
12:12pm 18 22 mph 1022mb 65f 63f
12:06pm 18 22 mph 1022.1mb 65f 63f
12:00pm 16 21 mph 1022.1mb 65f 63f
11:42am 21 24 mph 1022mb 65f 63f
11:36am 20 25 mph 1021.9mb 66f 63f
11:30am 20 23 mph 1021.9mb 66f 63f
11:24am 22 24 mph 1022mb 66f 63f
11:18am 22 25 mph 1022mb 66f 63f
11:12am 22 25 mph 1022mb 66f 63f
11:06am 21 25 mph 1021.9mb 66f 62f
11:00am 20 26 mph 1021.9mb 66f -
10:42am 23 28 mph 1021.7mb 66f 62f
10:36am 22 26 mph 1021.7mb 66f 62f
10:30am 23 28 mph 1021.6mb - -
10:24am 22 26 mph 1021.5mb 66f 62f
10:18am 23 26 mph 1021.5mb 66f 62f
10:12am 23 25 mph 1021.5mb 66f 62f
10:06am 20 24 mph 1021.6mb 66f 62f
10:00am 20 24 mph 1021.6mb 66f 62f
9:42am 22 25 mph 1021.6mb 67f 62f
9:36am 22 24 mph 1021.6mb 67f 62f
9:30am 20 23 mph 1021.6mb 67f 61f
9:24am 18 22 mph 1021.6mb 67f 61f
9:18am 20 22 mph 1021.6mb 67f 61f
9:12am 18 21 mph 1021.5mb 67f 61f
9:06am 20 23 mph 1021.3mb 67f 61f
9:00am 18 22 mph 1021.3mb 67f 61f
8:42am 17 22 mph 1021.2mb 67f 61f
8:36am 20 23 mph 1021.1mb 68f 61f
8:30am 20 24 mph 1021mb 68f 61f
8:24am 21 23 mph 1020.9mb 68f 61f
8:18am 20 22 mph 1021mb 68f 61f
8:12am 20 23 mph 1020.9mb 68f 61f
8:06am 21 23 mph 1020.8mb 68f 61f
8:00am 21 23 mph 1020.8mb 68f 61f
7:42am 18 21 mph 1021.2mb 68f 61f
7:36am 18 21 mph 1021.2mb 69f 61f
7:30am 18 22 mph 1021.2mb 69f 60f
7:24am 18 22 mph 1021.2mb 69f 60f